Location: Peebles
(55.6412°N, 3.1714°W)
Time: 22:10:21
(UTC+01:00)

USA 281 - Pass Details

Date: 30 January 2022
Orbit: 1070 x 1089 km, 106.0° (Epoch: 25 March)

Event Time Altitude Azimuth Distance (km) Brightness Sun altitude
Rises 03:30:18 0° 30° (NNE) 3,905 6.8 -38.6°
Reaches altitude 10° 03:32:52 10° 26° (NNE) 2,947 6.0 -38.3°
Enters shadow 03:36:41 35° 9° (N) 1,680 4.3 -37.8°
